Location: Moscow
(55.7500°N, 37.5830°E)
Time: 04:04:36
(UTC+03:00)

Vanguard 1 - Pass Details

Date: 10 August 2022
Orbit: 649 x 3832 km, 34.2° (Epoch: 30 September)

Event Time Altitude Azimuth Distance (km) Brightness Sun altitude
Exits shadow 02:15:34 - 164° (SSE) 5,941 13.6 -15.5°
Reaches altitude 10° 02:23:46 10° 137° (SE) 5,828 13.8 -15.0°
Maximum altitude 02:27:59 11° 123° (ESE) 6,047 14.0 -14.8°
Drops below altitude 10° 02:32:34 10° 110° (ESE) 6,444 14.3 -14.5°
Sets 02:44:39 0° 84° (E) 7,931 15.3 -13.6°
